Norwegian Spirit — C6TQ6 — position and weather

sailwx.info

Track history (hours):
 
Tides and Currents Weather Stations Pressure Air Temp Water Temp Dewpoint Dewpoint Depression Visibility Wind Speed Wind Dir Waves Ship Positions

Norwegian Spirit

Operator: Norwegian Cruise Line

Last reported at 2017-Nov-24 20:04 UTC. Time now 2017-Nov-24 22:24 UTC.
Position N 35°58' W 005°38'.

Type: Passenger vessel. MMSI: 311746000.

Date/timePositionNaut miles runAvg speedWind from/ knotsBaromVisibWave heightAir tempDewpointWater temp
2017-Nov-24 20:04N 35°58' W 005°38'115.7
2017-Nov-24 20:00N 35°58' W 005°37'816.5
2017-Nov-24 19:30N 35°60' W 005°27'816.3
2017-Nov-24 19:00N 36°02' W 005°17'18320.3
2017-Nov-24 09:58N 36°46' W 001°36'1221.1
2017-Nov-24 09:25N 36°53' W 001°24'1021.2
2017-Nov-24 08:56N 36°60' W 001°14'921.0
2017-Nov-24 08:30N 37°05' W 001°05'1020.9
2017-Nov-24 08:00N 37°11' W 000°55'1021.0
2017-Nov-24 07:30N 37°17' W 000°44'1121.0
2017-Nov-24 07:00N 37°24' W 000°34'1020.9
2017-Nov-24 06:30N 37°30' W 000°23'1020.5
2017-Nov-24 06:00N 37°39' W 000°16'1020.4
2017-Nov-24 05:30N 37°48' W 000°10'1220.5
2017-Nov-24 04:56N 37°58' W 000°02'920.3
2017-Nov-24 04:30N 38°05' E 000°04'1020.2
2017-Nov-24 04:00N 38°14' E 000°10'1020.1
2017-Nov-24 03:30N 38°22' E 000°17'1020.1
2017-Nov-24 03:00N 38°31' E 000°24'1020.3
2017-Nov-24 02:30N 38°39' E 000°30'1120.9
2017-Nov-24 02:00N 38°49' E 000°37'1821.4
2017-Nov-24 01:10N 39°05' E 000°46'321.2
2017-Nov-24 01:00N 39°08' E 000°48'1020.9
2017-Nov-24 00:30N 39°17' E 000°55'1620.6
2017-Nov-23 23:43N 39°32' E 001°04'3320.4
2017-Nov-23 22:06N 40°01' E 001°24'220.4
2017-Nov-23 22:00N 40°03' E 001°25'1020.2
2017-Nov-23 21:30N 40°12' E 001°31'1020.4
2017-Nov-23 21:00N 40°21' E 001°37'6370.4
2017-Nov-23 21:00N 40°18' E 001°30'1632.2 190 / 151025.010.8 14.014.020.0
2017-Nov-23 20:30N 40°30' E 001°43'1020.4
2017-Nov-23 20:00N 40°39' E 001°49'1120.3
2017-Nov-23 19:29N 40°49' E 001°55'1020.3
2017-Nov-23 19:00N 40°58' E 001°59'1020.2
2017-Nov-23 18:30N 41°07' E 002°05'1020.1
2017-Nov-23 18:00N 41°16' E 002°11'2 0.1
2017-Nov-23 03:02N 41°18' E 002°11'0 8.0
2017-Nov-23 03:00N 41°18' E 002°11'611.6
2017-Nov-23 02:28N 41°12' E 002°12'117 4.6
2017-Nov-22 01:00N 39°18' E 001°36'178 6.1 180 / 101019.010.8 18.0 19.0
2017-Nov-20 20:00N 36°54' W 000°36'67 3.5 100 / 9 10.8 15.015.0
2017-Nov-20 01:00N 36°30' W 001°54'7715.5 080 / 121022.010.8 19.0 19.0
2017-Nov-19 20:00N 36°24' W 003°30'24 1.3 100 / 131020.010.8 15.015.0
2017-Nov-19 01:00N 36°24' W 003°00'22255.5 050 / 161020.010.8 17.0 19.0
2017-Nov-18 21:00N 36°30' E 001°36'11750.1 070 / 91020.010.8 20.0
2017-Nov-18 18:39N 36°44' W 000°49'517.9
2017-Nov-18 18:22N 36°45' W 000°42'3617.6
2017-Nov-18 16:19N 36°54' E 000°01'517.5
2017-Nov-18 16:00N 36°56' E 000°08'1017.6
2017-Nov-18 15:25N 36°58' E 000°20'917.9
2017-Nov-18 14:54N 37°01' E 000°31'1314.7
2017-Nov-18 14:00N 37°00' E 000°48'24719.0 090 / 31019.010.8 19.0 19.0
2017-Nov-18 01:00N 38°06' E 005°48'8220.5 340 / 271023.010.8 17.0 18.0
2017-Nov-17 21:00N 38°24' E 007°30'2019.7 300 / 231017.010.8 20.0
2017-Nov-17 20:00N 38°30' E 007°54'3323.3 330 / 221017.010.8 19.0
2017-Nov-17 18:35N 38°41' E 008°33'520.8
2017-Nov-17 18:22N 38°43' E 008°39'820.7
2017-Nov-17 18:00N 38°46' E 008°48'1020.8
2017-Nov-17 17:30N 38°52' E 008°58'1020.2
2017-Nov-17 17:00N 39°00' E 009°06'816.2
2017-Nov-17 16:29N 39°08' E 009°07'4 8.4
2017-Nov-17 16:00N 39°12' E 009°06'0 0.5
2017-Nov-17 15:26N 39°13' E 009°06'0 0.0
2017-Nov-17 14:56N 39°13' E 009°06'0 0.0
2017-Nov-17 14:26N 39°13' E 009°06'0 0.0
2017-Nov-17 13:56N 39°13' E 009°06'0 0.0
2017-Nov-17 13:26N 39°13' E 009°06'0 0.0
2017-Nov-17 12:56N 39°13' E 009°06'0 0.0
2017-Nov-17 12:26N 39°13' E 009°06'0 0.0
2017-Nov-17 11:56N 39°13' E 009°06'0 0.0
2017-Nov-17 11:26N 39°13' E 009°06'0 0.0
2017-Nov-17 10:56N 39°13' E 009°06'0 0.0
2017-Nov-17 10:26N 39°13' E 009°06'0 0.0
2017-Nov-17 09:56N 39°13' E 009°06'0 0.0
2017-Nov-17 09:26N 39°13' E 009°06'0 0.0
2017-Nov-17 08:56N 39°13' E 009°06'0 0.0
2017-Nov-17 08:26N 39°13' E 009°06'0 0.0
2017-Nov-17 07:56N 39°13' E 009°06'0 0.0
2017-Nov-17 07:26N 39°13' E 009°06'0 0.0
2017-Nov-17 06:56N 39°13' E 009°06'0 0.0
2017-Nov-17 06:26N 39°13' E 009°06'0 0.4
2017-Nov-17 06:00N 39°12' E 009°06'4 7.1
2017-Nov-17 05:30N 39°09' E 009°07'611.7
2017-Nov-17 05:00N 39°04' E 009°12'510.0
2017-Nov-17 04:30N 39°01' E 009°17'5 9.6
2017-Nov-17 04:00N 38°58' E 009°22'5 9.7
2017-Nov-17 03:30N 38°55' E 009°27'62 9.5
2017-Nov-16 21:00N 38°18' E 010°30'8 7.6 360 / 231015.010.8 19.0
2017-Nov-16 20:00N 38°12' E 010°36'93 9.3 360 / 251015.010.8 19.0
2017-Nov-16 10:00N 37°18' E 012°12'8710.0 340 / 201012.010.8 19.0
2017-Nov-16 01:12N 36°29' E 013°43'2 9.1
2017-Nov-16 01:01N 36°29' E 013°45'5 9.4
2017-Nov-16 00:30N 36°26' E 013°50'5 9.5
2017-Nov-16 00:00N 36°23' E 013°54'5 9.4
2017-Nov-15 23:30N 36°20' E 013°59'5 9.5
2017-Nov-15 23:00N 36°18' E 014°04'5 9.5
2017-Nov-15 22:30N 36°15' E 014°09'5 9.4
2017-Nov-15 22:00N 36°12' E 014°13'6412.1
2017-Nov-15 22:00N 36°06' E 014°12'510.9 150 / 161008.0 5.4 21.0
2017-Nov-15 21:30N 36°09' E 014°18'5 9.4
2017-Nov-15 21:01N 36°05' E 014°22'6366.9
2017-Nov-15 21:00N 36°00' E 014°18'713.9 160 / 111008.010.8 21.0
2017-Nov-15 20:30N 36°02' E 014°26'5 9.6
2017-Nov-15 20:00N 35°58' E 014°30'4 8.9
2017-Nov-15 19:30N 35°55' E 014°33'1 0.2
2017-Nov-15 12:47N 35°54' E 014°31'1 4.3
2017-Nov-15 12:30N 35°55' E 014°32'3 5.9
2017-Nov-15 11:59N 35°56' E 014°35'3 6.0
2017-Nov-15 11:30N 35°58' E 014°38'3 6.5
2017-Nov-15 10:59N 36°01' E 014°41'4 7.7
2017-Nov-15 10:30N 36°03' E 014°44'80 7.9
2017-Nov-15 00:23N 37°11' E 015°37'15 8.3
2017-Nov-14 22:34N 37°26' E 015°37'1 8.4
2017-Nov-14 22:30N 37°27' E 015°37'4 8.5
2017-Nov-14 22:00N 37°31' E 015°37'195.9
2017-Nov-14 22:00N 37°30' E 015°36'510.6 260 / 251006.010.8 20.0
2017-Nov-14 21:30N 37°35' E 015°37'4 8.3
2017-Nov-14 21:00N 37°39' E 015°36'3405.2
2017-Nov-14 21:00N 37°36' E 015°36'814.5 250 / 301006.010.8 20.0
2017-Nov-14 20:28N 37°43' E 015°35'  
Track history (hours):
 
Tides and Currents Weather Stations Pressure Air Temp Water Temp Dewpoint Dewpoint Depression Visibility Wind Speed Wind Dir Waves Ship Positions

Norwegian Spirit

Operator: Norwegian Cruise Line

Last reported at 2017-Nov-24 20:04 UTC. Time now 2017-Nov-24 22:24 UTC.
Position N 35°58' W 005°38'.

Type: Passenger vessel. MMSI: 311746000.

Date/timePositionNaut miles runAvg speedWind from/ knotsBaromVisibWave heightAir tempDewpointWater temp
2017-Nov-24 20:04N 35°58' W 005°38'115.7
2017-Nov-24 20:00N 35°58' W 005°37'816.5
2017-Nov-24 19:30N 35°60' W 005°27'816.3
2017-Nov-24 19:00N 36°02' W 005°17'18320.3
2017-Nov-24 09:58N 36°46' W 001°36'1221.1
2017-Nov-24 09:25N 36°53' W 001°24'1021.2
2017-Nov-24 08:56N 36°60' W 001°14'921.0
2017-Nov-24 08:30N 37°05' W 001°05'1020.9
2017-Nov-24 08:00N 37°11' W 000°55'1021.0
2017-Nov-24 07:30N 37°17' W 000°44'1121.0
2017-Nov-24 07:00N 37°24' W 000°34'1020.9
2017-Nov-24 06:30N 37°30' W 000°23'1020.5
2017-Nov-24 06:00N 37°39' W 000°16'1020.4
2017-Nov-24 05:30N 37°48' W 000°10'1220.5
2017-Nov-24 04:56N 37°58' W 000°02'920.3
2017-Nov-24 04:30N 38°05' E 000°04'1020.2
2017-Nov-24 04:00N 38°14' E 000°10'1020.1
2017-Nov-24 03:30N 38°22' E 000°17'1020.1
2017-Nov-24 03:00N 38°31' E 000°24'1020.3
2017-Nov-24 02:30N 38°39' E 000°30'1120.9
2017-Nov-24 02:00N 38°49' E 000°37'1821.4
2017-Nov-24 01:10N 39°05' E 000°46'321.2
2017-Nov-24 01:00N 39°08' E 000°48'1020.9
2017-Nov-24 00:30N 39°17' E 000°55'1620.6
2017-Nov-23 23:43N 39°32' E 001°04'3320.4
2017-Nov-23 22:06N 40°01' E 001°24'220.4
2017-Nov-23 22:00N 40°03' E 001°25'1020.2
2017-Nov-23 21:30N 40°12' E 001°31'1020.4
2017-Nov-23 21:00N 40°21' E 001°37'6370.4
2017-Nov-23 21:00N 40°18' E 001°30'1632.2 190 / 151025.010.8 14.014.020.0
2017-Nov-23 20:30N 40°30' E 001°43'1020.4
2017-Nov-23 20:00N 40°39' E 001°49'1120.3
2017-Nov-23 19:29N 40°49' E 001°55'1020.3
2017-Nov-23 19:00N 40°58' E 001°59'1020.2
2017-Nov-23 18:30N 41°07' E 002°05'1020.1
2017-Nov-23 18:00N 41°16' E 002°11'2 0.1
2017-Nov-23 03:02N 41°18' E 002°11'0 8.0
2017-Nov-23 03:00N 41°18' E 002°11'611.6
2017-Nov-23 02:28N 41°12' E 002°12'117 4.6
2017-Nov-22 01:00N 39°18' E 001°36'178 6.1 180 / 101019.010.8 18.0 19.0
2017-Nov-20 20:00N 36°54' W 000°36'67 3.5 100 / 9 10.8 15.015.0
2017-Nov-20 01:00N 36°30' W 001°54'7715.5 080 / 121022.010.8 19.0 19.0
2017-Nov-19 20:00N 36°24' W 003°30'24 1.3 100 / 131020.010.8 15.015.0
2017-Nov-19 01:00N 36°24' W 003°00'22255.5 050 / 161020.010.8 17.0 19.0
2017-Nov-18 21:00N 36°30' E 001°36'11750.1 070 / 91020.010.8 20.0
2017-Nov-18 18:39N 36°44' W 000°49'517.9
2017-Nov-18 18:22N 36°45' W 000°42'3617.6
2017-Nov-18 16:19N 36°54' E 000°01'517.5
2017-Nov-18 16:00N 36°56' E 000°08'1017.6
2017-Nov-18 15:25N 36°58' E 000°20'917.9
2017-Nov-18 14:54N 37°01' E 000°31'1314.7
2017-Nov-18 14:00N 37°00' E 000°48'24719.0 090 / 31019.010.8 19.0 19.0
2017-Nov-18 01:00N 38°06' E 005°48'8220.5 340 / 271023.010.8 17.0 18.0
2017-Nov-17 21:00N 38°24' E 007°30'2019.7 300 / 231017.010.8 20.0
2017-Nov-17 20:00N 38°30' E 007°54'3323.3 330 / 221017.010.8 19.0
2017-Nov-17 18:35N 38°41' E 008°33'520.8
2017-Nov-17 18:22N 38°43' E 008°39'820.7
2017-Nov-17 18:00N 38°46' E 008°48'1020.8
2017-Nov-17 17:30N 38°52' E 008°58'1020.2
2017-Nov-17 17:00N 39°00' E 009°06'816.2
2017-Nov-17 16:29N 39°08' E 009°07'4 8.4
2017-Nov-17 16:00N 39°12' E 009°06'0 0.5
2017-Nov-17 15:26N 39°13' E 009°06'0 0.0
2017-Nov-17 14:56N 39°13' E 009°06'0 0.0
2017-Nov-17 14:26N 39°13' E 009°06'0 0.0
2017-Nov-17 13:56N 39°13' E 009°06'0 0.0
2017-Nov-17 13:26N 39°13' E 009°06'0 0.0
2017-Nov-17 12:56N 39°13' E 009°06'0 0.0
2017-Nov-17 12:26N 39°13' E 009°06'0 0.0
2017-Nov-17 11:56N 39°13' E 009°06'0 0.0
2017-Nov-17 11:26N 39°13' E 009°06'0 0.0
2017-Nov-17 10:56N 39°13' E 009°06'0 0.0
2017-Nov-17 10:26N 39°13' E 009°06'0 0.0
2017-Nov-17 09:56N 39°13' E 009°06'0 0.0
2017-Nov-17 09:26N 39°13' E 009°06'0 0.0
2017-Nov-17 08:56N 39°13' E 009°06'0 0.0
2017-Nov-17 08:26N 39°13' E 009°06'0 0.0
2017-Nov-17 07:56N 39°13' E 009°06'0 0.0
2017-Nov-17 07:26N 39°13' E 009°06'0 0.0
2017-Nov-17 06:56N 39°13' E 009°06'0 0.0
2017-Nov-17 06:26N 39°13' E 009°06'0 0.4
2017-Nov-17 06:00N 39°12' E 009°06'4 7.1
2017-Nov-17 05:30N 39°09' E 009°07'611.7
2017-Nov-17 05:00N 39°04' E 009°12'510.0
2017-Nov-17 04:30N 39°01' E 009°17'5 9.6
2017-Nov-17 04:00N 38°58' E 009°22'5 9.7
2017-Nov-17 03:30N 38°55' E 009°27'62 9.5
2017-Nov-16 21:00N 38°18' E 010°30'8 7.6 360 / 231015.010.8 19.0
2017-Nov-16 20:00N 38°12' E 010°36'93 9.3 360 / 251015.010.8 19.0
2017-Nov-16 10:00N 37°18' E 012°12'8710.0 340 / 201012.010.8 19.0
2017-Nov-16 01:12N 36°29' E 013°43'2 9.1
2017-Nov-16 01:01N 36°29' E 013°45'5 9.4
2017-Nov-16 00:30N 36°26' E 013°50'5 9.5
2017-Nov-16 00:00N 36°23' E 013°54'5 9.4
2017-Nov-15 23:30N 36°20' E 013°59'5 9.5
2017-Nov-15 23:00N 36°18' E 014°04'5 9.5
2017-Nov-15 22:30N 36°15' E 014°09'5 9.4
2017-Nov-15 22:00N 36°12' E 014°13'6412.1
2017-Nov-15 22:00N 36°06' E 014°12'510.9 150 / 161008.0 5.4 21.0
2017-Nov-15 21:30N 36°09' E 014°18'5 9.4
2017-Nov-15 21:01N 36°05' E 014°22'6366.9
2017-Nov-15 21:00N 36°00' E 014°18'713.9 160 / 111008.010.8 21.0
2017-Nov-15 20:30N 36°02' E 014°26'5 9.6
2017-Nov-15 20:00N 35°58' E 014°30'4 8.9
2017-Nov-15 19:30N 35°55' E 014°33'1 0.2
2017-Nov-15 12:47N 35°54' E 014°31'1 4.3
2017-Nov-15 12:30N 35°55' E 014°32'3 5.9
2017-Nov-15 11:59N 35°56' E 014°35'3 6.0
2017-Nov-15 11:30N 35°58' E 014°38'3 6.5
2017-Nov-15 10:59N 36°01' E 014°41'4 7.7
2017-Nov-15 10:30N 36°03' E 014°44'80 7.9
2017-Nov-15 00:23N 37°11' E 015°37'15 8.3
2017-Nov-14 22:34N 37°26' E 015°37'1 8.4
2017-Nov-14 22:30N 37°27' E 015°37'4 8.5
2017-Nov-14 22:00N 37°31' E 015°37'195.9
2017-Nov-14 22:00N 37°30' E 015°36'510.6 260 / 251006.010.8 20.0
2017-Nov-14 21:30N 37°35' E 015°37'4 8.3
2017-Nov-14 21:00N 37°39' E 015°36'3405.2
2017-Nov-14 21:00N 37°36' E 015°36'814.5 250 / 301006.010.8 20.0
2017-Nov-14 20:28N 37°43' E 015°35'  

Dump ship's entire track history